Omak, WA

10:25 AM PST on November 18, 2017 (GMT -0800)
Omak

Weather History for KOMK - July, 2013

Change the Weather History Date:

Wednesday, July 17, 2013

  Actual Average Record
Temperature  
Mean Temperature 76 °F 73 °F  
Max Temperature 90 °F 89 °F 106 °F (1941)
Min Temperature 62 °F 58 °F 46 °F (1953)
Degree Days  
Heating Degree Days 0 0  
Month to date heating degree days 0 11  
Since 1 June heating degree days 67 80  
Since 1 July heating degree days 0 11  
Cooling Degree Days 11 9  
Month to date cooling degree days 156 117  
Year to date cooling degree days 244 224  
Since 1 June cooling degree days 221 201  
Growing Degree Days 26 (Base 50)    
Moisture  
Dew Point 53 °F    
Average Humidity 46    
Maximum Humidity 63    
Minimum Humidity 29    
Precipitation  
Precipitation 0.26 in 0.03 in 0.95 in (2012)
Month to date precipitation 0.26 0.50  
Year to date precipitation 6.10 8.48  
Sea Level Pressure  
Sea Level Pressure 29.96 in    
Wind  
Wind Speed 10 mph (NNW)    
Max Wind Speed 22 mph    
Max Gust Speed 28 mph    
Visibility 9 miles    
Events Rain , Thunderstorm    
T = Trace of Precipitation, MM = Missing Value Source: NWS Daily Summary

Daily Weather History Graph

Daily Weather History Graph

Search for Another Location

Airport or City:

Trip Planner

Search our weather history database for the weather conditions in past years. The results will help you decide how hot, cold, wet, or windy it might be!

Date:

Astronomy

Jul. 17, 2013 Rise Set
Actual Time 5:14 AM PDT 8:53 PM PDT
Civil Twilight 4:35 AM PDT 9:32 PM PDT
Nautical Twilight 3:42 AM PDT 10:25 PM PDT
Astronomical Twilight 2:26 AM PDT 11:39 PM PDT
Moon 3:41 PM PDT (7/17) 12:34 AM PDT (7/17)
Length of Visible Light 16h 56m
Length of Day
15h 38m
Waxing Gibbous, 68% of the Moon is Illuminated
Jul 17
Waxing Gibbous
Jul 22
Full
Jul 29
Last Quarter
Aug 6
New
Aug 14
First Quarter

Hourly Weather History & Observations

Time (PDT) Temp. Heat Index Dew Point Humidity Pressure Visibility Wind Dir Wind Speed Gust Speed Precip Events Conditions
12:53 AM 73.0 °F - 44.1 °F 35% 29.84 in 10.0 mi WNW 8.1 mph - N/A   Clear
1:53 AM 71.1 °F - 44.1 °F 38% 29.85 in 10.0 mi NNW 9.2 mph - N/A   Clear
2:53 AM 70.0 °F - 44.1 °F 39% 29.83 in 10.0 mi NW 10.4 mph - N/A   Clear
3:53 AM 72.0 °F - 44.1 °F 37% 29.83 in 10.0 mi NW 10.4 mph - N/A   Clear
4:53 AM 72.0 °F - 45.0 °F 38% 29.87 in 10.0 mi North 6.9 mph - N/A   Partly Cloudy
5:16 AM 71.6 °F - 44.6 °F 38% 29.95 in 10.0 mi SW 8.1 mph - N/A Thunderstorm Mostly Cloudy
5:40 AM 64.4 °F - 53.6 °F 68% 29.95 in 6.0 mi NE 11.5 mph - 0.03 in Rain Light Rain
5:53 AM 64.9 °F - 52.0 °F 63% 29.90 in 10.0 mi North 13.8 mph - 0.03 in   Mostly Cloudy
6:53 AM 69.1 °F - 53.1 °F 57% 29.88 in 10.0 mi NW 8.1 mph - 0.00 in Rain , Thunderstorm Light Rain
7:17 AM 66.2 °F - 53.6 °F 64% 29.95 in 1.8 mi Calm Calm - 0.12 in Rain , Thunderstorm Light Thunderstorms and Rain
7:27 AM 64.4 °F - 55.4 °F 73% 29.94 in 3.0 mi NNE 11.5 mph - 0.13 in Rain , Thunderstorm Light Thunderstorms and Rain
7:53 AM 64.0 °F - 57.0 °F 78% 30.00 in 10.0 mi WSW 11.5 mph - 0.14 in   Overcast
8:02 AM 64.4 °F - 57.2 °F 77% 30.03 in 10.0 mi WSW 11.5 mph - N/A Thunderstorm Thunderstorm
8:34 AM 62.6 °F - 59.0 °F 88% 30.00 in 7.0 mi NNE 13.8 mph - 0.08 in Rain , Thunderstorm Light Thunderstorms and Rain
8:53 AM 62.1 °F - 57.9 °F 86% 29.97 in 10.0 mi North 12.7 mph 20.7 mph 0.09 in Rain , Thunderstorm Light Rain
9:00 AM 62.6 °F - 57.2 °F 82% 30.00 in 10.0 mi North 15.0 mph 21.9 mph 0.00 in   Partly Cloudy
9:53 AM 66.9 °F - 57.9 °F 73% 30.01 in 10.0 mi NNW 13.8 mph - 0.00 in   Clear
10:53 AM 73.9 °F - 55.9 °F 53% 30.02 in 10.0 mi North 12.7 mph 19.6 mph N/A   Clear
11:53 AM 77.0 °F - 57.9 °F 52% 30.00 in 10.0 mi NNW 10.4 mph - N/A   Clear
12:53 PM 80.1 °F 80.4 °F 57.0 °F 45% 30.00 in 10.0 mi North 3.5 mph - N/A   Clear
1:53 PM 82.9 °F 82.4 °F 57.0 °F 41% 29.99 in 10.0 mi Calm Calm - N/A   Clear
2:53 PM 84.9 °F 83.3 °F 54.0 °F 34% 29.97 in 10.0 mi Variable 3.5 mph - N/A   Clear
3:53 PM 86.0 °F 84.5 °F 55.0 °F 35% 29.96 in 10.0 mi Calm Calm - N/A   Clear
4:53 PM 89.1 °F 86.9 °F 54.0 °F 30% 29.94 in 10.0 mi Calm Calm - N/A   Clear
5:53 PM 86.0 °F 84.9 °F 57.0 °F 37% 29.95 in 10.0 mi North 18.4 mph 24.2 mph N/A   Clear
6:53 PM 84.0 °F 82.9 °F 55.0 °F 37% 29.96 in 10.0 mi North 19.6 mph 27.6 mph N/A   Mostly Cloudy
7:53 PM 80.1 °F 80.1 °F 55.0 °F 42% 29.99 in 10.0 mi North 18.4 mph - N/A   Clear
8:53 PM 75.0 °F - 55.9 °F 51% 30.02 in 10.0 mi North 17.3 mph 25.3 mph N/A   Clear
9:53 PM 73.0 °F - 55.0 °F 53% 30.04 in 10.0 mi North 11.5 mph 23.0 mph N/A   Clear
10:53 PM 71.1 °F - 54.0 °F 55% 30.04 in 10.0 mi NW 10.4 mph 19.6 mph N/A   Clear
11:53 PM 69.1 °F - 54.0 °F 58% 30.06 in 10.0 mi NW 6.9 mph - N/A   Clear